Presure
236 230 227 221 157 234 234 235 244 236 232 236 234 219 216 229 202 204 205 209 222 208 202 209 213 209 236 229 233 257 248 222 216 215 208 202 202 205 210 203 197 203 196 193
233 141 159 226 222 154 224 227 228 227 230 237 238 237 238 235 231 231 227 236 241 240 241 224 230 232 266 260 243 227 216 210 204 210 207 207 213 213 212 203 196 190 186 197
219 224 223 221 141 227 225 221 221 221 222 222 222 222 220 220 222 223 224 225 223 221 221 232 230 223 227 198 214 211 213 213 214 213 212 212 202 201 203 201 187 190 192 195
218 221 200 141 162 219 221 222 223 218 216 216 224 225 223 224 228 232 233 227 223 232 228 215 213 214 215 220 217 219 215 214 213 213 217 210 205 205 203 189 193 191 192 196
216 215 112 137 215 218 219 234 235 231 225 222 223 222 221 218 219 223 224 219 222 237 240 242 247 249 242 241 236 231 226 222 219 214 198 196 192 192 195 199 203 208 209 196
207 217 128 219 221 227 230 229 223 218 215 213 212 211 230 249 255 253 254 248 233 219 212 210 205 205 204 209 205 193 193 189 192 193 198 202 202 205 212 215 186 202 195 197
220 156 112 227 220 218 218 216 213 216 213 245 243 239 227 222 216 210 205 206 206 202 201 201 199 192 213 212 217 225 225 223 221 217 212 207 206 205 202 190 205 207 208 199
222 200 218 220 217 216 207 207 208 236 226 217 215 214 208 205 203 200 199 197 200 208 209 202 203 200 204 206 205 201 199 196 196 194 203 206 208 207 206 205 204 193 193 190
214 208 215 214 212 211 241 237 227 220 218 212 207 199 204 194 195 197 206 201 199 201 197 195 201 200 197 200 200 194 202 200 197 205 205 205 203 206 206 200 197 194 188 185
158 187 231 242 246 235 224 222 215 211 205 199 202 198 199 201 195 198 200 198 193 192 197 196 190 184 193 192 195 193 192 200 202 197 199 197 205 201 195 192 187 189 195 195
207 218 240 235 224 224 206 205 200 192 192 193 203 202 204 203 201 198 195 197 201 198 194 192 191 188 214 216 218 224 224 214 191 191 194 195 186 190 186 191 185 201 226 235
226 214 220 208 208 201 206 197 196 194 193 201 197 197 197 193 192 200 198 191 187 178 203 220 224 225 221 221 219 211 214 210 205 203 196 191 189 190 184 204 221 213 244 248
213 203 200 198 190 199 198 201 201 198 200 202 198 198 195 195 193 188 185 191 199 211 214 219 218 218 215 223 214 204 202 198 193 194 196 197 198 220 215 220 227 242 250 243
200 198 187 195 195 194 196 197 200 201 198 198 191 189 190 191 193 196 203 206 203 208 214 214 246 236 230 216 207 198 182 191 195 197 203 215 216 228 230 231 240 246 244 254
199 191 188 190 192 197 192 197 197 199 195 192 195 196 197 203 204 205 201 196 208 211 209 214 233 230 212 202 193 186 184 187 204 209 210 215 228 226 228 238 241 240 252 288
197 195 192 192 189 186 189 192 192 188 193 193 197 206 205 200 202 203 200 209 205 202 225 224 243 208 197 191 194 187 209 205 204 215 211 218 223 218 233 238 243 246 265 290
193 192 191 194 193 193 194 190 191 194 199 204 201 200 202 199 196 200 201 204 209 228 215 199 203 200 195 192 194 203 205 206 211 212 218 217 220 229 245 243 234 245 282 301
189 188 190 190 185 187 190 204 211 205 196 195 198 194 191 189 197 208 203 217 216 216 184 198 192 191 199 201 201 207 211 201 212 213 215 233 230 243 241 234 247 260 302 403
189 187 186 191 192 191 201 196 190 196 200 210 189 195 198 208 196 203 210 211 206 178 201 192 188 200 193 201 212 210 202 203 216 221 235 244 245 241 237 283 275 287 409 460
193 194 191 189 198 194 193 192 193 197 206 185 191 195 197 200 199 206 203 221 209 200 193 199 191 195 201 213 208 202 213 214 221 235 240 244 254 242 256 269 282 355 460 444
197 196 197 197 195 121 151 192 186 197 187 188 194 190 192 199 197 201 215 228 195 186 199 191 199 201 209 205 203 213 212 211 236 241 201 252 242 248 267 302 349 361 444 432
196 195 199 196 189 187 190 201 197 184 195 200 188 189 196 200 200 206 222 209 192 195 196 201 195 207 204 207 214 213 223 235 243 195 257 242 250 289 279 330 359 442 428 421
197 200 193 189 192 201 202 198 193 197 198 191 187 195 199 203 191 209 223 197 194 193 203 198 207 204 197 215 212 228 238 247 242 256 245 252 296 270 318 364 450 434 421 415
198 190 186 190 197 196 189 192 194 192 173 188 189 200 205 214 201 216 229 193 198 200 202 212 209 204 214 215 223 240 242 228 236 217 268 293 265 320 341 401 442 427 419 404
193 172 148 199 194 190 188 193 194 183 189 189 202 203 205 208 215 224 191 201 202 204 206 212 214 211 214 226 238 247 227 224 248 293 288 263 314 338 380 381 433 426 419 391
163 193 164 187 169 193 194 183 188 191 198 203 201 201 219 224 228 193 203 204 209 207 213 217 211 187 224 237 227 245 210 252 259 271 264 313 331 356 381 366 433 428 415 372
Wind_Speed
25 26 27 28 32 29 29 30 33 40 44 48 56 63 64 66 58 64 69 73 75 71 70 78 81 79 55 59 51 33 32 60 70 73 75 77 79 79 77 75 74 75 76 77
23 42 38 28 30 34 29 27 28 31 32 34 36 39 41 46 51 51 54 48 47 48 46 58 57 53 41 33 39 55 61 63 68 68 72 75 75 74 74 74 74 76 77 81
25 26 27 27 34 26 24 26 26 28 28 30 33 36 37 40 41 42 45 45 46 48 51 47 49 54 52 57 58 59 61 62 63 66 71 72 70 73 74 75 75 78 80 81
23 23 25 32 31 26 26 25 24 24 25 29 29 31 34 36 37 38 39 39 41 41 43 48 50 52 54 56 58 57 59 60 64 67 69 68 71 73 73 75 78 80 82 84
23 26 31 33 26 23 22 20 20 19 19 23 28 31 33 33 34 35 37 38 40 39 37 38 39 40 40 42 44 47 50 55 59 61 63 66 70 72 75 77 80 84 82 84
25 22 33 21 21 19 16 16 15 15 19 22 26 28 27 26 25 25 23 24 26 31 33 36 39 42 46 48 49 53 58 62 66 67 68 70 73 75 77 77 77 82 84 87
19 28 32 17 16 16 14 15 16 16 19 11 10 11 14 18 22 25 29 31 33 36 39 41 44 48 47 51 53 54 55 57 59 62 65 67 71 73 77 80 85 88 91 91
17 21 17 13 15 15 17 16 18 10 11 14 16 19 23 26 27 30 33 37 38 37 39 41 44 48 51 53 54 56 58 61 63 66 70 73 76 78 81 84 87 88 93 95
16 16 14 14 14 15 10 10 11 13 14 17 21 24 24 28 31 33 34 37 40 44 46 49 52 54 57 58 60 62 63 66 68 70 72 75 78 82 84 87 92 96 98 99
24 19 14 12 12 12 12 12 14 17 20 21 22 25 26 28 33 35 37 40 44 47 50 52 54 58 60 61 62 65 67 69 71 75 76 78 79 81 85 89 94 98 103 107
15 15 13 13 12 11 16 15 18 21 22 25 26 28 30 33 35 38 41 44 45 47 49 52 56 61 61 63 64 64 65 69 75 78 79 80 83 86 90 94 93 103 105 108
15 14 13 13 12 14 15 18 21 24 26 25 28 31 33 34 38 41 42 44 47 52 56 55 55 55 55 57 58 61 61 65 71 73 78 82 86 90 91 99 99 106 111 114
13 13 14 15 19 15 19 22 24 26 27 27 31 34 37 40 43 46 48 50 54 55 56 56 56 55 54 54 57 61 63 68 73 77 81 85 90 93 97 101 105 116 119 115
15 16 19 16 18 20 22 26 28 29 30 32 32 37 42 45 48 51 55 57 58 59 59 59 56 55 56 59 62 65 69 76 80 83 86 89 93 101 104 108 117 121 121 127
16 19 20 20 22 22 25 27 29 33 34 37 40 43 45 47 49 52 54 57 60 60 61 61 60 58 61 65 69 72 77 81 83 85 89 96 105 105 109 119 121 123 129 134
19 19 21 23 24 30 33 30 33 35 39 41 44 44 46 50 52 53 56 57 61 61 62 60 63 63 67 70 74 78 80 82 86 93 95 102 106 105 120 121 127 125 133 132
23 23 24 25 25 29 38 32 36 38 41 40 42 44 48 52 57 59 58 59 59 63 59 63 64 66 70 73 79 81 83 86 95 98 106 105 111 120 125 125 116 124 132 128
28 28 28 30 31 33 41 43 38 34 41 43 44 47 52 56 60 63 57 64 62 60 63 66 68 72 76 79 82 88 91 91 101 103 107 120 119 126 124 118 124 128 126 110
33 32 31 32 35 36 41 45 42 40 45 49 46 51 53 58 59 64 64 67 64 63 67 69 72 77 78 85 92 93 93 98 108 113 122 123 124 123 121 126 129 129 110 75
36 34 34 38 36 37 45 49 45 44 44 50 54 56 58 61 61 70 66 76 70 69 70 74 75 82 87 94 94 95 104 107 114 122 121 124 124 121 128 130 129 112 74 67
38 36 37 39 38 25 37 50 47 48 49 53 57 58 61 67 65 71 80 80 69 67 75 77 84 88 93 93 95 105 106 106 122 122 86 123 120 123 130 126 114 108 68 59
40 39 40 41 46 46 49 53 52 52 57 58 56 60 66 69 72 78 84 75 71 75 80 85 87 94 94 97 105 108 117 121 122 80 124 116 123 129 128 111 109 70 62 54
42 43 44 49 52 51 51 51 55 58 60 60 61 68 73 77 69 81 85 74 75 80 88 89 93 93 93 105 105 121 122 121 120 124 120 124 127 127 109 110 69 62 56 49
45 49 49 51 56 53 51 57 60 59 52 65 66 76 81 86 77 87 87 75 81 86 89 94 94 93 104 108 116 122 118 111 116 106 126 125 123 108 109 86 63 57 51 45
52 42 30 52 54 53 59 63 64 60 68 70 81 82 81 84 87 89 75 85 88 91 92 98 100 100 108 118 123 121 104 104 120 126 124 121 110 110 94 85 58 52 45 42
43 55 40 51 51 59 65 62 68 72 80 83 81 80 92 90 92 77 88 90 92 93 99 106 100 78 115 124 105 116 88 121 127 125 122 111 109 104 84 83 52 47 40 39
Wind_Direction
209 212 222 230 259 232 234 236 238 242 247 251 253 253 258 259 269 268 268 269 268 270 277 275 274 278 277 277 278 273 258 270 276 282 288 291 291 291 293 295 296 297 297 297
208 251 249 225 233 264 241 242 240 242 245 248 252 256 258 259 263 266 267 271 272 272 272 271 271 274 285 284 273 276 283 284 286 286 288 287 288 292 292 293 295 297 298 296
215 218 222 229 262 235 237 239 239 242 247 251 255 257 258 260 262 266 269 271 273 275 276 279 281 282 283 287 289 290 289 288 289 288 286 287 292 292 294 293 296 294 294 296
222 225 237 256 255 233 233 236 239 245 252 257 258 261 261 262 264 265 268 270 271 273 276 281 285 287 289 290 291 289 286 287 284 284 287 291 288 289 290 293 292 293 293 291
223 226 267 261 242 244 244 241 236 238 247 253 255 258 264 272 280 280 280 284 285 284 285 286 288 290 290 286 287 286 287 285 287 290 292 291 291 292 291 291 292 292 292 293
226 231 258 244 248 249 247 246 246 241 244 254 268 275 278 277 277 280 284 290 293 289 289 288 288 290 292 294 293 287 291 291 293 293 292 291 289 290 291 292 294 294 294 296
228 252 264 228 240 251 257 265 271 275 277 248 258 271 283 284 286 288 289 291 293 292 293 296 297 294 296 293 292 295 296 295 293 293 294 295 295 297 298 296 299 301 301 302
212 235 227 232 240 247 256 268 272 217 234 263 268 271 277 284 289 292 294 293 295 298 298 293 293 292 298 301 302 301 302 301 301 300 301 301 302 302 302 303 303 305 306 308
226 240 245 251 257 259 198 194 225 242 250 257 268 278 288 289 291 293 301 301 302 305 303 304 306 305 305 304 301 302 302 302 303 302 303 306 308 306 305 305 305 305 308 309
261 257 225 208 179 202 222 231 246 255 266 277 283 284 286 291 294 300 304 302 302 302 301 301 300 299 298 299 301 301 302 303 305 308 307 308 306 304 305 305 306 303 302 301
230 231 202 204 228 222 251 257 265 271 282 289 295 300 303 301 303 302 300 298 298 298 298 296 296 297 304 305 305 303 302 301 307 307 306 304 307 306 306 301 303 301 303 304
223 235 226 234 244 253 261 272 277 281 286 296 302 298 299 299 301 297 296 295 295 293 304 307 308 308 306 304 303 303 303 302 302 302 302 305 304 301 303 301 304 300 313 314
227 241 251 255 265 274 280 280 282 287 297 301 300 303 304 301 298 294 293 300 304 309 310 310 310 308 305 304 301 302 304 306 307 306 303 301 301 308 305 307 310 319 318 317
244 247 258 271 277 281 285 289 294 298 303 304 302 301 299 299 300 303 307 309 309 311 312 312 318 313 312 309 309 310 308 310 307 305 308 312 312 318 319 319 321 320 319 320
249 254 262 269 277 284 286 291 298 302 304 300 302 300 300 304 304 305 306 306 309 311 312 313 317 313 311 311 312 312 309 307 308 311 311 316 322 320 320 322 322 320 319 313
251 259 266 273 282 286 288 296 299 302 299 302 302 305 305 302 303 304 305 308 311 313 317 314 316 311 311 312 311 307 312 309 311 319 316 320 321 317 323 322 320 319 318 315
258 265 271 276 284 289 288 295 294 299 298 299 302 305 305 307 306 305 308 311 313 319 311 310 311 312 312 311 310 311 314 316 320 319 322 321 321 322 321 320 318 320 317 319
264 269 277 283 283 289 290 292 296 297 299 302 306 304 304 302 302 310 307 318 316 316 311 312 313 314 315 315 312 318 320 315 320 320 320 323 322 321 320 318 320 320 319 319
266 272 278 283 287 290 288 291 296 305 306 299 301 300 303 311 301 311 318 318 315 309 311 313 312 315 312 316 322 321 317 318 323 323 322 320 320 320 319 318 318 319 319 321
265 271 277 278 284 286 285 291 300 305 302 302 301 305 307 313 313 317 316 317 315 312 313 314 313 315 316 322 321 318 321 322 323 322 321 321 318 319 320 320 319 322 321 320
269 273 275 278 281 297 293 294 302 303 299 302 304 305 306 312 313 316 318 315 311 312 315 313 317 317 320 320 318 321 320 321 322 321 321 319 319 320 320 320 321 322 320 319
272 274 277 278 280 283 290 291 298 296 300 305 302 304 308 312 314 315 314 311 311 315 316 317 315 318 318 319 321 319 322 322 320 320 319 320 320 319 320 322 323 321 320 319
272 277 278 280 284 285 289 298 296 299 304 303 303 307 310 312 308 311 311 313 315 316 317 315 316 317 311 320 317 321 321 320 320 318 319 321 319 320 320 323 321 321 320 317
275 277 282 286 285 296 298 295 297 300 299 303 304 308 310 310 309 311 308 312 314 314 313 315 317 314 319 319 319 320 319 318 318 319 319 318 320 321 323 322 321 320 319 316
272 276 283 289 291 295 295 298 299 300 302 303 305 306 307 308 309 309 309 314 313 313 314 317 318 316 319 319 319 319 319 317 320 317 319 320 321 322 323 323 320 319 317 315
281 283 292 290 291 294 296 296 300 300 301 302 303 306 305 306 306 310 311 311 312 313 316 319 316 316 318 318 318 318 317 320 321 319 319 321 324 323 323 323 319 316 314 313